Home > Weather > Escuintla > Past weeks

Flag for Guatemala Past Weather in Escuintla, Guatemala — Yesterday and Last 2 Weeks

Now
63 °F

Passing clouds.


Feels Like: 63 °F
Forecast: 70 / 91 °F
Wind: 9 mph from Northeast

Location: Guatemala Aeropuertola Aurora

Current Time: Jun 27, 2016 at 3:36:20 AM

Latest Report: Jun 27, 2016 at 3:00 AM


Visibility: N/A

Pressure: 30.24 "Hg

Humidity: 94%

Dew Point: 61 °F

Location of EscuintlaLocation

Past Weather in Escuintla — Graph

°F

Escuintla Temperature Yesterday

Maximum temperature yesterday: 77 °F (at 1:00 PM)
Minimum temperature yesterday: 63 °F (at 3:00 AM)
Average temperature yesterday: 69 °F

High & Low Weather Summary for the Past Weeks

 TemperatureHumidityPressure
High81 °F (Jun 15, 1:00 PM)100% (Jun 13, 4:00 AM)30.42 "Hg (Jun 13, 4:00 AM)
Low61 °F (Jun 16, 6:00 AM)39% (Jun 13, 3:00 PM)30.18 "Hg (Jun 17, 3:00 PM)
Average68 °F81%30.30 "Hg
* Reported Jun 12 2:00 AM — Jun 27 2:00 AM, Escuintla, Weather by CustomWeather, © 2016

Note: Actual official high and low records may vary slightly from our data, if they occured in-between our weather recording intervals... More about our weather records

Advertising

Escuintla Weather History for the Previous 24 Hours

Scroll right to see more
 ConditionsComfort  
Time TempWeatherWind HumidityBarometerVisibility
2:00 AM
Mon, Jun 27
64 °FPassing clouds.14 mph83%30.27 "HgN/A
1:00 AM64 °FPassing clouds.14 mph83%30.27 "HgN/A
12:00 AM64 °FPassing clouds.7 mph83%30.30 "HgN/A
11:00 PM
Sun, Jun 26
64 °FPassing clouds.12 mph88%30.33 "HgN/A
10:00 PM66 °FPassing clouds.9 mph94%30.33 "HgN/A
9:00 PM68 °FPassing clouds.14 mph78%30.30 "HgN/A
8:00 PM70 °FPassing clouds.14 mph73%30.30 "HgN/A
7:00 PM70 °FPassing clouds.12 mph73%30.27 "HgN/A
6:00 PM73 °FScattered clouds.16 mph65%30.24 "HgN/A
5:00 PM73 °FScattered clouds.18 mph65%30.24 "HgN/A
4:00 PM77 °FScattered clouds.16 mph54%30.24 "HgN/A
3:00 PM77 °FScattered clouds.16 mph57%30.24 "HgN/A
2:00 PM77 °FScattered clouds.16 mph57%30.27 "HgN/A
1:00 PM77 °FScattered clouds.16 mph54%30.30 "HgN/A
12:00 PM75 °FScattered clouds.12 mph61%30.30 "HgN/A
11:00 AM73 °FScattered clouds.14 mph65%30.30 "HgN/A
10:00 AM72 °FScattered clouds.14 mph69%30.30 "HgN/A
9:00 AM68 °FPartly sunny.12 mph78%30.30 "HgN/A
8:00 AM66 °FPartly sunny.9 mph88%30.30 "HgN/A
7:00 AM64 °FScattered clouds.12 mph88%30.30 "HgN/A
6:00 AM63 °FPartly sunny.12 mph94%30.27 "HgN/A
5:00 AM63 °FPassing clouds.12 mph94%30.27 "HgN/A
4:00 AM63 °FPassing clouds.12 mph94%30.27 "HgN/A
3:00 AM63 °FPassing clouds.9 mph94%30.27 "HgN/A
Weather by CustomWeather, © 2016

See weather overviewHow to use our weather pages